{"data":{"norad_id":58467,"epoch":"2026-06-01T00:51:19.618272Z","epoch_age_seconds":9875440,"freshness":"OLD","line1":"1 58467U 23185F   26152.03564373  .05761009  24419-5  11520-2 0  9990","line2":"2 58467  97.3060 236.4922 0014926 262.3118  97.6482 16.31146913140062","mean_motion":16.31146913,"eccentricity":0.0014926,"inclination_deg":97.306,"raan_deg":236.4922,"arg_perigee_deg":262.3118,"mean_anomaly_deg":97.6482,"bstar":0.001152,"rev_number":14006,"period_min":88.281441023087,"perigee_km":179.65659806717,"apogee_km":199.26218681789,"semimajor_km":6567.5963924425,"source":"CELESTRAK","updated_at":"2026-06-02T09:00:19.573345Z"}}